Regional Weather Roundup
Issued by NWS

Home | Current Version | Previous Version | Text Only | Print | Product List | Glossary Off
Versions: 1 2 3 4 5 6 7 8 9 10 11 12 13 14 15 16 17 18 19 20 21 22 23 24 25 26 27 28 29 30 31 32 33 34 35 36 37 38 39 40 41 42 43 44 45 46 47 48 49 50

000
ASUS45 KBOU 251107
RWRCO

WEATHER ROUNDUP FOR COLORADO
NATIONAL WEATHER SERVICE DENVER/BOULDER CO
500 AM MDT SAT APR 25 2015

NOTE: "FAIR" INDICATES FEW OR NO CLOUDS BELOW 12000 FEET WITH NO
SIGNIFICANT WEATHER AND/OR OBSTRUCTIONS TO VISIBILITY.

COZ001>005-013-030-031-251200-
...NORTHWEST COLORADO...

CITY           SKY/WX    TMP DP  RH WIND       PRES   REMARKS
CRAIG          CLOUDY    47  32  56 W13       29.80R
HAYDEN         CLOUDY    43  28  56 S8        29.80R
MEEKER         LGT RAIN  47  31  53 SW12      29.80R
MOUNT WERNER   NOT AVBL
STEAMBOAT SPGS CLOUDY    37  32  84 CALM      29.81S
WALDEN         MOCLDY    36  27  69 S9        29.83R
$$

COZ006>008-011-251200-
...WEST CENTRAL VALLEYS...

CITY           SKY/WX    TMP DP  RH WIND       PRES   REMARKS
GRAND JUNCTION CLOUDY    49  33  54 E5        29.79R
MONTROSE       CLOUDY    49  33  54 S9        29.86S
EAGLE          CLOUDY    30  28  93 SE5       29.88S WCI  25
RIFLE          CLOUDY    40  34  79 E7        29.82R
DELTA          MOCLDY    45  34  65 MISG      29.84S
NUCLA          MOCLDY    46  34  61 CALM      29.89S
$$

COZ017>023-064>068-251200-
...SOUTHWEST COLORADO...

CITY           SKY/WX    TMP DP  RH WIND       PRES   REMARKS
DURANGO        CLOUDY    38  36  92 CALM      29.95F
CORTEZ         CLOUDY    47  37  68 SW9       29.92R
PAGOSA SPRINGS CLOUDY    37  35  92 CALM      29.98R
TELLURIDE      CLOUDY    35  29  78 SE5       29.97S WCI  31
WOLF CREEK PAS NOT AVBL
$$

COZ009-010-012-014-032>034-037-058>063-251200-
...CENTRAL COLORADO...

CITY           SKY/WX    TMP DP  RH WIND       PRES   REMARKS
ASPEN          PTCLDY    32  24  72 S5        29.86S WCI  27
BUENA VISTA    PTCLDY    35  23  62 W5        29.87S WCI  30
COPPER MTN     PTCLDY    28  18  64 SW13G21   29.97S WCI  18
BERTHOUD PASS  FAIR      19  10  68 NW21G33   29.96R WCI   3
COTTONWOOD PAS PTCLDY    37  21  52 NW9       29.91F
GUNNISON       PTCLDY    28  23  80 CALM      29.96S
KREMMLING      PTCLDY    30  25  80 CALM      29.87R
LEADVILLE      MOCLDY    23  17  78 CALM      29.91S
MONARCH PASS   CLOUDY    23  21  93 MISG      30.08S
SALIDA         PTCLDY    41  25  52 SW13      29.95R
SUNLIGHT       MOCLDY    30  27  86 CALM      29.96S
WILKERSON PASS MOCLDY    27  18  69 SW8G16    29.96R WCI  18
$$

COZ069>075-251200-
...SAN LUIS VALLEY/SANGRE DE CRISTO MOUNTAINS...

CITY           SKY/WX    TMP DP  RH WIND       PRES   REMARKS
ALAMOSA        PTCLDY    26  22  84 E9        29.92F WCI  17
LA VETA PASS   PTCLDY    27  25  93 S15G23    29.93F WCI  15
SAGUACHE       PTCLDY    28  23  80 S3        29.95R
$$

COZ035-036-038>040-251200-
...NORTHERN COLORADO FRONT RANGE...

CITY           SKY/WX    TMP DP  RH WIND       PRES   REMARKS
DENVER INTL AP CLEAR     42  27  55 S6        29.72R
DMNS CITY PARK   N/A     43  27  54 S5        29.73R
AURORA         NOT AVBL
FRONT RANGE AP NOT AVBL
ERIE MUNI ARPT CLEAR     34  31  92 CALM      29.72R
BOULDER MUN AP CLEAR     43  32  65 CALM      29.72R
CENTENNIAL     PTCLDY    39  26  59 S6        29.75R
BROOMFIELD     CLEAR     46  30  53 W9        29.73R
FORT COLLINS   CLEAR     39  34  81 S7        29.72R
LONGMONT       CLEAR     41  33  73 NW3       29.74R
$$

COZ041-046-047-076>085-087-088-251200-
...PIKES PEAK/PALMER DIVIDE AND SOUTHERN FOOTHILLS...

CITY           SKY/WX    TMP DP  RH WIND       PRES   REMARKS
COLO. SPRINGS  CLEAR     44  23  43 NW7       29.78R
A. F. ACADEMY  NOT AVBL
ELLICOTT       CLEAR    N/A N/A N/A CALM      29.77R
FALCON         CLEAR     42  21  43 W12       29.80S
FORT CARSON    CLEAR     39  26  61 NW3       29.76R
LIMON          CLEAR     34  30  85 N3        29.74R
MONUMENT HILL  CLEAR     37  23  56 SW12      29.79R
TRINIDAD       CLEAR     41  23  48 SW13      29.79S
$$

COZ042>045-048>051-090-091-251200-
...NORTHEAST COLORADO...

CITY           SKY/WX    TMP DP  RH WIND       PRES   REMARKS
GREELEY ARPT   CLEAR     39  30  70 CALM      29.72R
AKRON          CLOUDY    40  36  86 NW9       29.69R
BURLINGTON     PTCLDY    43  37  79 W13       29.67R
WRAY           PTCLDY    45  40  85 W7        29.65R
STERLING       PTCLDY    41  37  87 NW6       29.68R
HOLYOKE        PTCLDY    45  39  81 NW10      29.65S
FORT MORGAN    PTCLDY    39  33  78 W3        29.70S
$$

COZ086-089-092>099-251200-
...SOUTHEAST COLORADO...

CITY           SKY/WX    TMP DP  RH WIND       PRES   REMARKS
PUEBLO         CLEAR     38  33  82 CALM      29.74R
LA JUNTA       PTCLDY    43  31  62 SW13      29.73R
LAMAR          CLEAR     44  39  82 SW12      29.68R
SPRINGFIELD      N/A     44  28  53 W12       29.72R
$$



USA.gov is the U.S. government's official web portal to all federal, state and local government web resources and services.